Erneuerung der Klassenberechtigung SEP SP

Auffrischungsschulung

Bei abgelaufenen Klassen-, Muster- und Instrumentenflugberechtigungen wird gemäß AMC1 FCL.625(c) und AMC1 FCL-740(b)(1) Auffrischungstraining vor der Prüfung notwendig. Diese Tabelle soll einen Überblick darüber geben, was die Mindestanforderungen laut EASA Teil FCL sind.

 

Ablauf

Erneuerung Klassen- und Muster- berechtigungen

Erneuerung Instrumentenflug- berechtigung

Kombination (beides abgelaufen)
< 3 Monate nicht vorgeschrieben nicht vorgeschrieben nicht vorgeschrieben
> 3 Monate & < 1 Jahr 2 Trainingseinheiten 1 Trainingseinheit 3 Trainingseinheiten
> 1 Jahr & < 3 Jahre 3 Trainingseinheiten 3 Trainingseinheiten 6 Trainingseinheiten
> 3 Jahre & < 7 Jahre Neuerwerb (SEP 5h) 3 Trainingseinheiten 8 Trainingseinheiten
> 7 Jahre Neuerwerb (SEP 5h) Neuerwerb Neuerwerb

 

 

 

 

Flugwetter Augsburg

[source: ADDS]
METAR
EDMA 302250Z AUTO 09003KT 9999 // NCD M05/M08 Q1024 =
TAF EDMA 301700Z 3018/3103 VRB03KT CAVOK
TAF
TAF EDMA 301700Z 3018/3103 VRB03KT CAVOK =
Cookies erleichtern die Bereitstellung unserer Dienste. Mit der Nutzung unserer Dienste erklären Sie sich damit einverstanden, dass wir Cookies verwenden.
Weitere Informationen Ok